| time (UTC) | temp F | wind direction | speed MPH | gust MPH | rain 1hr in | rain 24hr in | rain mn in | humidity % | barometer mb |
| 20260507193816 | 60 | 0.0 | 0.0 | 0.00 | 0.00 | 0.00 | 80 | 1009.3 | |
| 20260507192817 | 60 | 0.0 | 0.0 | 0.00 | 0.00 | 0.00 | 79 | 1009.3 | |
| 20260507191841 | 61 | 0.0 | 0.0 | 0.00 | 0.00 | 0.00 | 79 | 1009.1 | |
| 20260507190842 | 61 | 0.0 | 0.0 | 0.00 | 0.00 | 0.00 | 77 | 1009.1 | |
| 20260507185815 | 62 | 0.0 | 0.0 | 0.00 | 0.00 | 0.00 | 75 | 1008.8 | |
| 20260507184816 | 62 | 0.0 | 0.0 | 0.00 | 0.00 | 0.00 | 73 | 1008.8 | |
| 20260507183819 | 63 | 0.0 | 0.0 | 0.00 | 0.00 | 0.00 | 72 | 1008.7 | |
| 20260507182821 | 64 | 0.0 | 0.0 | 0.00 | 0.00 | 0.00 | 70 | 1008.7 | |
| 20260507181824 | 65 | 0.0 | 0.0 | 0.00 | 0.00 | 0.00 | 68 | 1008.8 | |
| 20260507180815 | 66 | 0.0 | 0.0 | 0.00 | 0.00 | 0.00 | 67 | 1008.8 | |
| 20260507175837 | 67 | 0.0 | 0.0 | 0.00 | 0.00 | 0.00 | 66 | 1008.4 | |
| 20260507174820 | 67 | 0.0 | 0.0 | 0.00 | 0.00 | 0.00 | 65 | 1008.4 | |
| 20260507173821 | 67 | 0.0 | 0.0 | 0.00 | 0.00 | 0.00 | 65 | 1008.4 | |
| 20260507172823 | 67 | 0.0 | 0.0 | 0.00 | 0.00 | 0.00 | 65 | 1008.3 | |
| 20260507171815 | 67 | 0.0 | 0.0 | 0.00 | 0.00 | 0.00 | 64 | 1008.0 | |
| 20260507170817 | 68 | 0.0 | 0.0 | 0.00 | 0.00 | 0.00 | 66 | 1008.0 | |
| 20260507165820 | 67 | 0.0 | 0.0 | 0.00 | 0.00 | 0.00 | 67 | 1008.3 | |
| 20260507164822 | 67 | 0.0 | 0.0 | 0.00 | 0.00 | 0.00 | 67 | 1008.3 | |
| 20260507163844 | 67 | 0.0 | 0.0 | 0.00 | 0.00 | 0.00 | 65 | 1008.3 | |
| 20260507162816 | 68 | 0.0 | 0.0 | 0.00 | 0.00 | 0.00 | 64 | 1008.3 | |
| 20260507161818 | 68 | 0.0 | 0.0 | 0.00 | 0.00 | 0.00 | 61 | 1008.4 | |
| 20260507160821 | 69 | 0.0 | 0.0 | 0.00 | 0.00 | 0.00 | 60 | 1008.4 | |
| 20260507155822 | 69 | 0.0 | 0.0 | 0.00 | 0.00 | 0.00 | 58 | 1008.1 | |
| 20260507154835 | 69 | 0.0 | 0.0 | 0.00 | 0.00 | 0.00 | 57 | 1008.2 | |
| 20260507153816 | 69 | 0.0 | 0.0 | 0.00 | 0.00 | 0.00 | 57 | 1008.0 | |
| 20260507152819 | 69 | 0.0 | 0.0 | 0.00 | 0.00 | 0.00 | 58 | 1008.0 | |
| 20260507151842 | 69 | 0.0 | 0.0 | 0.00 | 0.00 | 0.00 | 58 | 1008.0 | |
| 20260507150823 | 69 | 0.0 | 0.0 | 0.00 | 0.00 | 0.00 | 59 | 1008.0 | |
| 20260507145816 | 69 | 0.0 | 0.0 | 0.00 | 0.00 | 0.00 | 58 | 1008.2 | |
| 20260507144817 | 69 | 0.0 | 0.0 | 0.00 | 0.00 | 0.00 | 61 | 1008.2 | |
| 20260507143839 | 69 | 0.0 | 0.0 | 0.00 | 0.00 | 0.00 | 59 | 1008.3 | |
| 20260507142820 | 70 | 0.0 | 0.0 | 0.00 | 0.00 | 0.00 | 60 | 1008.4 | |
| 20260507141823 | 69 | 0.0 | 0.0 | 0.00 | 0.00 | 0.00 | 61 | 1008.3 | |
| 20260507140815 | 68 | 0.0 | 0.0 | 0.00 | 0.00 | 0.00 | 62 | 1008.3 | |
| 20260507135838 | 69 | 0.0 | 0.0 | 0.00 | 0.00 | 0.00 | 62 | 1008.4 | |
| 20260507134820 | 69 | 0.0 | 0.0 | 0.00 | 0.00 | 0.00 | 59 | 1008.3 | |
| 20260507133822 | 69 | 0.0 | 0.0 | 0.00 | 0.00 | 0.00 | 60 | 1008.5 | |
| 20260507132823 | 68 | 0.0 | 0.0 | 0.00 | 0.00 | 0.00 | 61 | 1008.5 | |
| 20260507131856 | 68 | 0.0 | 0.0 | 0.00 | 0.00 | 0.00 | 63 | 1008.6 | |
| 20260507130838 | 67 | 0.0 | 0.0 | 0.00 | 0.00 | 0.00 | 62 | 1008.6 | |
| 20260507125820 | 68 | 0.0 | 0.0 | 0.00 | 0.00 | 0.00 | 63 | 1008.7 | |
| 20260507124821 | 69 | 0.0 | 0.0 | 0.00 | 0.00 | 0.00 | 61 | 1008.7 | |
| 20260507123843 | 69 | 0.0 | 0.0 | 0.00 | 0.00 | 0.00 | 64 | 1008.7 | |
| 20260507122814 | 67 | 0.0 | 0.0 | 0.00 | 0.00 | 0.00 | 65 | 1008.7 | |
| 20260507121817 | 66 | 0.0 | 0.0 | 0.00 | 0.00 | 0.00 | 70 | 1009.0 | |
| 20260507120821 | 65 | 0.0 | 0.0 | 0.00 | 0.00 | 0.00 | 73 | 1009.0 | |
| 20260507115843 | 64 | 0.0 | 0.0 | 0.00 | 0.00 | 0.00 | 75 | 1009.0 | |
| 20260507114815 | 65 | 0.0 | 0.0 | 0.00 | 0.00 | 0.00 | 73 | 1009.0 | |
| 20260507113817 | 65 | 0.0 | 0.0 | 0.00 | 0.00 | 0.00 | 68 | 1008.9 | |
| 20260507112821 | 66 | 0.0 | 0.0 | 0.00 | 0.00 | 0.00 | 66 | 1008.9 | |
| 20260507111822 | 67 | 0.0 | 0.0 | 0.00 | 0.00 | 0.00 | 61 | 1009.1 | |
| 20260507110824 | 68 | 0.0 | 0.0 | 0.00 | 0.00 | 0.00 | 60 | 1009.1 | |
| 20260507105817 | 68 | 0.0 | 0.0 | 0.00 | 0.00 | 0.00 | 59 | 1009.2 | |
| 20260507104820 | 68 | 0.0 | 0.0 | 0.00 | 0.00 | 0.00 | 60 | 1009.2 | |
| 20260507103824 | 69 | 0.0 | 0.0 | 0.00 | 0.00 | 0.00 | 60 | 1009.1 | |
| 20260507102815 | 69 | 0.0 | 0.0 | 0.00 | 0.00 | 0.00 | 61 | 1009.1 | |
| 20260507101817 | 69 | 0.0 | 0.0 | 0.00 | 0.00 | 0.00 | 65 | 1009.5 | |
| 20260507100821 | 67 | 0.0 | 0.0 | 0.00 | 0.00 | 0.00 | 64 | 1009.5 | |
| 20260507095823 | 67 | 0.0 | 0.0 | 0.00 | 0.00 | 0.00 | 64 | 1009.2 | |
| 20260507094825 | 66 | 0.0 | 0.0 | 0.00 | 0.00 | 0.00 | 64 | 1009.2 | |
| 20260507093816 | 66 | 0.0 | 0.0 | 0.00 | 0.00 | 0.00 | 69 | 1009.1 | |
| 20260507092818 | 65 | 0.0 | 0.0 | 0.00 | 0.00 | 0.00 | 70 | 1009.1 | |
| 20260507091819 | 64 | 0.0 | 0.0 | 0.00 | 0.00 | 0.00 | 70 | 1009.3 | |
| 20260507090821 | 63 | 0.0 | 0.0 | 0.00 | 0.00 | 0.00 | 69 | 1009.3 | |
| 20260507085823 | 64 | 0.0 | 0.0 | 0.00 | 0.00 | 0.00 | 69 | 1009.2 | |
| 20260507084836 | 63 | 0.0 | 0.0 | 0.00 | 0.00 | 0.00 | 68 | 1009.2 | |
| 20260507083817 | 64 | 0.0 | 0.0 | 0.00 | 0.00 | 0.00 | 68 | 1009.2 | |
| 20260507082820 | 63 | 0.0 | 0.0 | 0.00 | 0.00 | 0.00 | 69 | 1009.3 | |
| 20260507081823 | 64 | 0.0 | 0.0 | 0.00 | 0.00 | 0.00 | 69 | 1009.0 | |
| 20260507080815 | 64 | 0.0 | 0.0 | 0.00 | 0.00 | 0.00 | 69 | 1008.9 | |
| 20260507075818 | 63 | 0.0 | 0.0 | 0.00 | 0.00 | 0.00 | 69 | 1009.0 | |
| 20260507074821 | 63 | 0.0 | 0.0 | 0.00 | 0.00 | 0.00 | 70 | 1009.0 | |
| 20260507073823 | 62 | 0.0 | 0.0 | 0.00 | 0.00 | 0.00 | 71 | 1009.0 | |
| 20260507072825 | 62 | 0.0 | 0.0 | 0.00 | 0.00 | 0.00 | 71 | 1009.0 | |
| 20260507071817 | 61 | 0.0 | 0.0 | 0.00 | 0.00 | 0.00 | 73 | 1008.7 | |
| 20260507070819 | 61 | 0.0 | 0.0 | 0.00 | 0.00 | 0.00 | 73 | 1008.7 | |
| 20260507065820 | 60 | 0.0 | 0.0 | 0.00 | 0.00 | 0.00 | 75 | 1008.4 | |
| 20260507064843 | 59 | 0.0 | 0.0 | 0.00 | 0.00 | 0.00 | 76 | 1008.4 | |
| 20260507063825 | 59 | 0.0 | 0.0 | 0.00 | 0.00 | 0.00 | 78 | 1008.5 | |
| 20260507062816 | 59 | 0.0 | 0.0 | 0.00 | 0.00 | 0.00 | 78 | 1008.5 | |
| 20260507061818 | 58 | 0.0 | 0.0 | 0.00 | 0.00 | 0.00 | 82 | 1008.6 | |
| 20260507060820 | 55 | 0.0 | 0.0 | 0.00 | 0.00 | 0.00 | 84 | 1008.6 | |
| 20260507055822 | 53 | 0.0 | 0.0 | 0.00 | 0.00 | 0.00 | 84 | 1008.5 | |
| 20260507054824 | 52 | 0.0 | 0.0 | 0.00 | 0.00 | 0.00 | 84 | 1008.5 | |
| 20260507053836 | 52 | 0.0 | 0.0 | 0.00 | 0.00 | 0.00 | 84 | 1008.2 | |
| 20260507052839 | 52 | 0.0 | 0.0 | 0.00 | 0.00 | 0.00 | 86 | 1008.2 | |
| 20260507051822 | 50 | 0.0 | 0.0 | 0.00 | 0.00 | 0.00 | 86 | 1008.0 | |
| 20260507050824 | 50 | 0.0 | 0.0 | 0.00 | 0.00 | 0.00 | 86 | 1008.0 | |
| 20260507045816 | 49 | 0.0 | 0.0 | 0.00 | 0.00 | 0.00 | 86 | 1007.7 | |
| 20260507044818 | 48 | 0.0 | 0.0 | 0.00 | 0.00 | 0.00 | 86 | 1007.7 | |
| 20260507043821 | 48 | 0.0 | 0.0 | 0.00 | 0.00 | 0.00 | 86 | 1007.5 | |
| 20260507042824 | 48 | 0.0 | 0.0 | 0.00 | 0.00 | 0.00 | 86 | 1007.5 | |
| 20260507041816 | 48 | 0.0 | 0.0 | 0.00 | 0.00 | 0.00 | 85 | 1007.2 | |
| 20260507040818 | 48 | 0.0 | 0.0 | 0.00 | 0.00 | 0.00 | 85 | 1007.2 | |
| 20260507035821 | 48 | 0.0 | 0.0 | 0.00 | 0.00 | 0.00 | 85 | 1007.3 | |
| 20260507034822 | 48 | 0.0 | 0.0 | 0.00 | 0.00 | 0.00 | 85 | 1007.4 | |
| 20260507033825 | 48 | 0.0 | 0.0 | 0.00 | 0.00 | 0.00 | 84 | 1007.3 | |
| 20260507032816 | 48 | 0.0 | 0.0 | 0.00 | 0.00 | 0.00 | 83 | 1007.3 | |
| 20260507031819 | 49 | 0.0 | 0.0 | 0.00 | 0.00 | 0.00 | 83 | 1007.4 | |
| 20260507030820 | 49 | 0.0 | 0.0 | 0.00 | 0.00 | 0.00 | 82 | 1007.4 | |
| 20260507025843 | 49 | 0.0 | 0.0 | 0.00 | 0.00 | 0.00 | 83 | 1007.3 | |
| 20260507024815 | 50 | 0.0 | 0.0 | 0.00 | 0.00 | 0.00 | 82 | 1007.3 | |
| 20260507023817 | 50 | 0.0 | 0.0 | 0.00 | 0.00 | 0.00 | 82 | 1007.2 | |
| 20260507022820 | 50 | 0.0 | 0.0 | 0.00 | 0.00 | 0.00 | 82 | 1007.2 | |
| 20260507021822 | 51 | 0.0 | 0.0 | 0.00 | 0.00 | 0.00 | 82 | 1007.2 | |
| 20260507020823 | 50 | 0.0 | 0.0 | 0.00 | 0.00 | 0.00 | 82 | 1007.2 | |
| 20260507015816 | 50 | 0.0 | 0.0 | 0.00 | 0.00 | 0.00 | 81 | 1007.2 | |
| 20260507014817 | 51 | 0.0 | 0.0 | 0.00 | 0.00 | 0.00 | 82 | 1007.2 | |
| 20260507013840 | 50 | 0.0 | 0.0 | 0.00 | 0.00 | 0.00 | 82 | 1007.1 | |
| 20260507012822 | 50 | 0.0 | 0.0 | 0.00 | 0.00 | 0.00 | 82 | 1007.1 | |
| 20260507011824 | 50 | 0.0 | 0.0 | 0.00 | 0.00 | 0.00 | 81 | 1007.0 | |
| 20260507010816 | 50 | 0.0 | 0.0 | 0.00 | 0.00 | 0.00 | 81 | 1007.0 | |
| 20260507005818 | 50 | 0.0 | 0.0 | 0.00 | 0.00 | 0.00 | 82 | 1006.8 | |
| 20260507004841 | 50 | 0.0 | 0.0 | 0.00 | 0.00 | 0.00 | 81 | 1006.8 | |
| 20260507003822 | 50 | 0.0 | 0.0 | 0.00 | 0.00 | 0.00 | 81 | 1007.0 | |
| 20260507002824 | 50 | 0.0 | 0.0 | 0.00 | 0.00 | 0.00 | 81 | 1007.0 | |
| 20260507001836 | 51 | 0.0 | 0.0 | 0.00 | 0.00 | 0.00 | 81 | 1006.6 | |
| 20260507000819 | 51 | 0.0 | 0.0 | 0.00 | 0.00 | 0.00 | 80 | 1006.6 | |
| 20260506235822 | 51 | 0.0 | 0.0 | 0.00 | 0.00 | 0.00 | 80 | 1006.7 | |
| 20260506234824 | 51 | 0.0 | 0.0 | 0.00 | 0.00 | 0.00 | 80 | 1006.7 | |
| 20260506233816 | 51 | 0.0 | 0.0 | 0.00 | 0.00 | 0.00 | 81 | 1006.7 | |
| 20260506232838 | 51 | 0.0 | 0.0 | 0.00 | 0.00 | 0.00 | 82 | 1006.7 | |
| 20260506231840 | 50 | 0.0 | 0.0 | 0.00 | 0.00 | 0.00 | 82 | 1006.6 | |
| 20260506230823 | 50 | 0.0 | 0.0 | 0.00 | 0.00 | 0.00 | 82 | 1006.6 | |
| 20260506225825 | 50 | 0.0 | 0.0 | 0.00 | 0.00 | 0.00 | 82 | 1006.4 | |
| 20260506224818 | 50 | 0.0 | 0.0 | 0.00 | 0.00 | 0.00 | 81 | 1006.3 | |
| 20260506223821 | 50 | 0.0 | 0.0 | 0.00 | 0.00 | 0.00 | 80 | 1006.5 | |
| 20260506222823 | 51 | 0.0 | 0.0 | 0.00 | 0.00 | 0.00 | 80 | 1006.5 | |
| 20260506221815 | 51 | 0.0 | 0.0 | 0.00 | 0.00 | 0.00 | 79 | 1006.5 | |
| 20260506220818 | 51 | 0.0 | 0.0 | 0.00 | 0.00 | 0.00 | 78 | 1006.5 | |
| 20260506215840 | 52 | 0.0 | 0.0 | 0.00 | 0.00 | 0.00 | 79 | 1006.4 | |
| 20260506214822 | 52 | 0.0 | 0.0 | 0.00 | 0.00 | 0.00 | 78 | 1006.4 | |
| 20260506213824 | 52 | 0.0 | 0.0 | 0.00 | 0.00 | 0.00 | 77 | 1006.4 | |
| 20260506212816 | 53 | 0.0 | 0.0 | 0.00 | 0.00 | 0.00 | 76 | 1006.5 | |
| 20260506211818 | 53 | 0.0 | 0.0 | 0.00 | 0.00 | 0.00 | 75 | 1006.5 | |
| 20260506210842 | 53 | 0.0 | 0.0 | 0.00 | 0.00 | 0.00 | 74 | 1006.5 | |
| 20260506205825 | 54 | 0.0 | 0.0 | 0.00 | 0.00 | 0.00 | 72 | 1006.3 | |
| 20260506204817 | 55 | 0.0 | 0.0 | 0.00 | 0.00 | 0.00 | 71 | 1006.3 | |
| 20260506203839 | 57 | 0.0 | 0.0 | 0.00 | 0.00 | 0.00 | 67 | 1006.4 | |
| 20260506202822 | 57 | 0.0 | 0.0 | 0.00 | 0.00 | 0.00 | 66 | 1006.4 | |
| 20260506201823 | 57 | 0.0 | 0.0 | 0.00 | 0.00 | 0.00 | 66 | 1006.3 | |
| 20260506200816 | 58 | 0.0 | 0.0 | 0.00 | 0.00 | 0.00 | 65 | 1006.3 | |
| 20260506195818 | 58 | 0.0 | 0.0 | 0.00 | 0.00 | 0.00 | 64 | 1006.2 | |
| 20260506194820 | 59 | 0.0 | 0.0 | 0.00 | 0.00 | 0.00 | 63 | 1006.2 |